Location: Unspecified
(0.0000°N, 0.0000°E)
Time: 07:43:01
(UTC+00:00)

S-56A Canister/Altair - Pass Details

Date: 28 May 2024
Orbit: 637 x 2489 km, 38.9° (Epoch: 22 June)

Event Time Altitude Azimuth Distance (km) Brightness Sun altitude
Rises 14:23:00 0° 280° (W) 3,100 11.2 48.4°
Reaches altitude 10° 14:26:22 10° 256° (WSW) 2,057 10.3 47.7°
Maximum altitude 14:29:02 15° 220° (SW) 1,698 9.6 47.2°
Drops below altitude 10° 14:31:41 10° 183° (S) 2,029 9.6 46.6°
Sets 14:34:59 0° 159° (SSE) 3,032 10.3 45.9°
